680  
NZUS93 KARX 080410  
HRRWXR  
 
CURRENT HOURLY OBSERVATIONS ACROSS  
MUCH OF THE UPPER MISSISSIPPI VALLEY  
NATIONAL WEATHER SERVICE LA CROSSE WI  
1100 PM CDT TUE JUL 07 2015  
 
   
..SOUTHEAST MINNESOTA
 
 
 
CITY SKY/WX TMP DP RH WIND PRES REMARKS  
ROCHESTER PTCLDY 59 49 69 CALM 30.14S  
ROCHESTER/MAYO FAIR 61 51 68 CALM 30.13F  
WINONA CLOUDY 59 55 88 CALM 30.13R  
AUSTIN CLEAR 57 54 88 CALM 30.12F  
ALBERT LEA CLEAR 55 54 94 CALM 30.13S  
DODGE CENTER CLEAR 55 52 88 CALM 30.13S  
PRESTON CLOUDY 58 51 77 CALM 30.14S  
OWATONNA CLEAR 55 52 88 CALM 30.13S  
FARIBAULT NOT AVBL  

 
   
..ELSEWHERE IN MINNESOTA
 
 
 
CITY SKY/WX TMP DP RH WIND PRES REMARKS  
MINNEAPOLIS PTCLDY 64 47 53 E5 30.12R  
INTNL FALLS CLEAR 50 46 86 CALM 30.05S  
DULUTH CLEAR 58 48 69 SW5 30.10S  
RED WING CLEAR 55 54 94 CALM 30.12R  
REDWOOD FALLS PTCLDY 59 52 77 S3 30.12R  
MANKATO CLEAR 59 52 77 S5 30.13R  
WORTHINGTON CLEAR 55 46 71 E6 30.14R  
FAIRMONT CLEAR 57 48 72 CALM 30.13S  

 
   
..SOUTHWEST WISCONSIN
 
 
 
CITY SKY/WX TMP DP RH WIND PRES REMARKS  
LA CROSSE CLOUDY 64 55 72 CALM 30.11R  
PRAIRIE DU CHI CLEAR 56 50 81 CALM 30.12S  
BOSCOBEL CLOUDY 59 55 87 CALM 30.12S  
LONE ROCK CLOUDY 62 56 80 CALM 30.12S  
PLATTEVILLE CLEAR 56 51 81 CALM 30.12S  
FORT MC COY CLOUDY 58 53 82 CALM 30.12S  
CAMP DOUGLAS MOCLDY 52 52 100 CALM 30.11R  
VIROQUA CLOUDY 61 56 83 CALM 30.13S  
WIS DELLS CLOUDY 61 55 82 CALM 30.11S  

 
   
..ELSEWHERE IN WISCONSIN
 
 
 
CITY SKY/WX TMP DP RH WIND PRES REMARKS  
MILWAUKEE PTCLDY 56 45 66 N5 30.11S  
MADISON MOCLDY 61 53 75 NE3 30.11S  
GREEN BAY CLEAR 56 51 84 S3 30.12R  
EAU CLAIRE CLEAR 55 51 86 CALM 30.12R  
BLACK RVR FLS FAIR 49 49 100 CALM 30.12R  
MEDFORD CLEAR 49 47 93 CALM 30.13F  
WAUSAU CLEAR 56 48 74 CALM 30.11R  
WIS RAPIDS CLEAR 55 50 83 CALM 30.13R  
MARSHFIELD CLEAR 57 49 74 CALM 30.12S  
RICE LAKE CLEAR 54 51 90 CALM 30.14S  

 
   
..NORTHEAST IOWA
 
 
 
CITY SKY/WX TMP DP RH WIND PRES REMARKS  
DECORAH N/A N/A N/A N/A MISG N/A  
MASON CITY PTCLDY 58 54 86 E3 30.14S  
CHARLES CITY MOCLDY 59 55 88 E5 30.13S  
OELWEIN N/A 55 52 88 NE3 30.13S  

 
   
..ELSEWHERE IN IOWA
 
 
 
CITY SKY/WX TMP DP RH WIND PRES REMARKS  
DES MOINES MOCLDY 64 51 62 NE6 30.11R  
IOWA CITY MOCLDY 62 54 74 NE7 30.11R  
FORT DODGE PTCLDY 55 50 82 E3 30.13S  

 
   
..NORTHERN ILLINOIS
 
 
 
CITY SKY/WX TMP DP RH WIND PRES REMARKS  
CHICAGO-OHARE MOCLDY 56 46 69 N6 30.11R  
CHICAGO-MIDWAY MOCLDY 60 45 57 N7 30.10S  
MOLINE MOCLDY 62 57 83 CALM 30.09R  
ROCKFORD MOCLDY 58 51 78 E3 30.13R  
PEORIA PTCLDY 66 57 72 E6 30.09R  

 
 
NOTE: "FAIR" INDICATES FEW OR NO CLOUDS BELOW 12,000 FEET WITH NO  
SIGNIFICANT WEATHER AND/OR OBSTRUCTIONS TO VISIBILITY. WIND  
SPEEDS ARE IN MILES-PER-HOUR.  
 
CLICK HERE TO GO TO PREVIOUS BULLETINS.

The Nexlab WI Page
The Nexlab IA Page
The Nexlab MN Page Main Text Page